OPS 4682 DEB, 38376

Orbit data source: Space-Track

OPS 4682 DEB, 38376 is space debris in LEO originally from a launch on Sat, 03 Apr 1965 UTC launched from the Air Force Western Test Range (AFWTR). Debris objects in space refer to the collection of defunct objects orbiting the Earth. Examples of debris include non-operational satellites, rocket bodies, and fragments generated from explosions, collisions, or faulty payload assembly.

Loading next visibility...
Identifier
38376, 1965-027CD
Orbit
LEO
Country
Flag of USUS
Related business
Manufacturer
Unknown
Mission
Spacecraft
Bus & Motor
Unknown
Mass
Unknown
Launch date (UTC)
1965-04-03 (61 years ago)
Launch vehicle
Unknown
Launch site
Air Force Western Test Range (AFWTR)
Object type
Payload
Rocket body
Debris
Shape & HBR
Unknown shape, 0.1 m
Radar Cross Section
Small (<0.1 m²)

Expand to show TLE details & history
Last TLE update: 1 day ago

TLE from 1 day ago
0 OPS 4682 DEB
1 38376U 65027CD  26103.19806603  .00000312  00000-0  10746-2 0  9998
2 38376  90.2473   9.3278 0029048 319.0130  40.8806 12.95835857653376
Epoch: 2026-04-13T04:45Z
TLE epoch observation values (Epoch: 2026-04-13T04:45:12.904Z)
Latitude
-0.00004°
Longitude
96.63192°
Altitude
1,264.532 km
Speed
7.231 km/s
True Right ascension
00h 37m 18s
True Declination
0° 00' 00"
Sunlit
Object was in daylight at epoch
Visualization orbit readout
Latitude
Unknown
Longitude
Unknown
Altitude
Unknown
Speed
Unknown
Apparent Right ascension
Unknown
Apparent Declination
Unknown
Sunlit
N/A
Visualization observer readout
Local Sidereal Time
15:49:28
Azimuth
Unknown
Elevation
Unknown
Doppler factor
Unknown
Orbital elements
Apogee altitude
1,297.811 km
Perigee altitude
1,253.346 km
Semi-major axis
7,653.716 km
Eccentricity
0.0029
Inclination
90.2473°
RAAN
9.3278°
Arg. of periapsis
319.013°
True anomaly
41.09905°
Mean anomaly
40.8806°
Eccentric anomaly
40.98977°
Mean motion
3.24142 °/min
Orbital period
111.06 mins
BSTAR
0.0010746
Loading maneuver chart data...
Computing Atmospheric mass density...
Loading historical data...
Loading historical data...
Loading historical data...
Loading historical data...
Loading historical data...
Loading historical data...
Loading historical data...

Documentation

Showing up to 5 results
|